Regional Weather Roundup
Issued by NWS Charleston, SC

Current Version | Previous Version | Text Only | Print | Product List | Glossary Off
Versions: 1 2 3 4 5 6 7 8 9 10 11 12 13 14 15 16 17 18 19 20 21 22 23 24 25 26 27 28 29 30 31 32 33 34 35 36 37 38 39 40 41 42 43 44 45 46 47 48 49 50

000
ASUS42 KCHS 010727
RWRCHS

REGIONAL WEATHER ROUNDUP
NATIONAL WEATHER SERVICE CHARLESTON SC
200 AM EST WED MAR 01 2017

NOTE: "FAIR" INDICATES FEW OR NO CLOUDS BELOW 12,000 FEET WITH NO
SIGNIFICANT WEATHER AND/OR OBSTRUCTIONS TO VISIBILITY.

NOT ALL STATIONS ARE QUALITY CONTROLLED. USE DATA WITH CAUTION...
ESPECIALLY DEWPOINT OBSERVATIONS.

SCZ027-030-031-034>040-042>050-010800-
...SOUTHEAST SOUTH CAROLINA...

CITY           SKY/WX    TMP DP  RH WIND       PRES   REMARKS
N CHARLESTON   CLOUDY    67  65  93 SW6       30.15F
WATERFRONT PRK   N/A     66  66 100 VRB3      30.15F
MOUNT PLEASANT CLOUDY    64  64 100 CALM      30.15F FOG
JOHNS ISLAND   PTSUNNY   70  70 100 S8        30.15F
PINOPOLIS        N/A     70  68  94 VRB3      30.06F
MONCKS CORNER  PTSUNNY   66  64  94 SW10      30.14F
SUMMERVILLE    PTSUNNY   68  64  88 S5        30.15F
BEAUFORT MCAS  PTCLDY    68  68 100 S10G21    30.14F
BEAUFORT ARPT  FAIR      68  66  94 S9G18     30.14F
HILTON HEAD IS PTCLDY    68  68 100 S12       30.16F
WALTERBORO     CLOUDY    66  64  94 S7        30.15F
ALLENDALE      FAIR      68  66  94 CALM      30.11F

...SOUTHERN MIDLANDS AND PEE DEE...

CITY           SKY/WX    TMP DP  RH WIND       PRES   REMARKS
GEORGETOWN     FAIR      64  64 100 S5        30.16F
KINGSTREE      PTSUNNY   66  64  94 S5        30.13F
ORANGEBURG     CLOUDY    66  65  96 S8        30.13F
BARNWELL       FAIR      68  66  94 CALM      30.11F
AIKEN          FAIR      63  59  88 S5        30.14F
MANNING        PTSUNNY   64  57  77 MISG      30.14F
COLUMBIA       MOCLDY    66  62  87 SW5       30.10F
SUMTER         CLOUDY    67  64  92 S9        30.10F
FLORENCE       CLOUDY    66  65  96 S10       30.12F
MYRTLE BEACH   MOCLDY    66  66 100 S13       30.14F
N MYRTLE BEACH CLOUDY    65  65 100 SW13      30.12F FOG

$$

GAZ063-065-086>088-099>101-113>116-118-119-134>141-150-010800-
...SOUTHEAST GEORGIA...

CITY           SKY/WX    TMP DP  RH WIND       PRES   REMARKS
SAVANNAH ARPT  CLOUDY    69  65  86 S10       30.16F
HUNTER AAF     CLOUDY    69  69 100 S10       30.13F
FORT STEWART   CLOUDY    68  65  92 CALM      30.13F
STATESBORO     CLOUDY    66  32  28 S3        30.13F
SYLVANIA       CLOUDY   N/A N/A N/A CALM      30.13F
CLAXTON        FAIR     N/A N/A N/A CALM      30.13F

...CSRA...CENTRAL AND FAR SOUTHEAST GEORGIA...

CITY           SKY/WX    TMP DP  RH WIND       PRES   REMARKS
THOMSON        CLOUDY    59  59 100 CALM      30.14F
AUGUSTA-BUSH   CLOUDY    63  60  90 S5        30.10F
AUGUSTA-DANIEL MOCLDY    67  60  78 S3        30.12S
SWAINSBORO     FAIR      64  63  94 S5        30.12F
VIDALIA        CLOUDY    66  64  94 S5        30.13F
EASTMAN        FAIR      64  63  97 CALM      30.14F
HAZLEHURST     FAIR      66  64  92 S3        30.12F
ALMA           CLOUDY    62  62 100 CALM      30.14F
WAYCROSS       CLOUDY    67  67 100 S3        30.15F
JESUP          FAIR      68  63  83 S3        30.15F
BAXLEY         FAIR      64  64 100 CALM      30.14F
BRUNSWICK      CLOUDY    70  68  94 S7        30.17F
SAINT SIMONS   CLOUDY    69  66  90 S9        30.17F

$$

SCZ027-028-034-036>038-045-046-048>050-GAZ119-141-010800-
...LAKE AND SUPPLEMENTAL COASTAL OBSERVATIONS...

STATION/POSITION TIME  TEMP    WIND        PRES    WAVE   SWELL
                       AIR SEA DIR/SP/G            HT/PER HT/PER/DIR
                 (UTC) (F)     (DEG/KT/KT) (MB)    (FT/S) (FT/S/D)
WINYAH BAY       0630   67     200/  5     1021.0F
LAKE MURRAY      0630   66     220/  5/  6 1019.3F
ACE BASIN NERRS  0645   65        CALM     1021.0F
FORT PULASKI     0700   68 64  220/  9/ 13 1021.4
SAPELO ISLAND    0700   69     180/ 12     1021.0

$$

ANZ835-935-AMZ111-154-330-350-352-354-370-450-454-472-010800-
...C-MAN AND BUOY OBSERVATIONS...

STATION/POSITION TIME  TEMP    WIND        PRES    WAVE   SWELL
                       AIR SEA DIR/SP/G            HT/PER HT/PER/DIR
                 (UTC) (F)     (DEG/KT/KT) (MB)    (FT/S) (FT/S/D)
BUOY 41004       0650   71 69  180/ 10/ 12 1021.3F   4/ 6   3/140/ 6
BUOY 41008       0650   66 63  190/ 10/ 12 1021.3F   2/ 7   2/110/ 7
FOLLY BEACH CMAN 0700   65     200/  5/  5 1021.4F
CAPERS NEARSHORE 0608   64 63  150/  6/  8 1021.6
FRIPP NEARSHORE  0708   64 62  200/  8/ 10 1020.6F


STATION/POSITION TIME  TEMP    WIND        PRES    WAVE   SWELL
                       AIR SEA DIR/SP/G            HT/PER HT/PER/DIR
                 (UTC) (F)     (DEG/KT/KT) (MB)    (FT/S) (FT/S/D)
5E ST. MARYS GA  0700      66                N/A     3/ 6
FRYING PAN BUOY  0710   71 69  190/ 14/ 16 1021.4
BUOY 41025       0650   73 74  220/ 21/ 25 1020.5F   5/ 7   2/360/12
CAPE LOOKOUT NC  0700   66     200/ 10/ 12 1020.4F
BUOY 41002       0650   70 71  160/ 14/ 16 1024.4F   4/ 6   2/ 70/ 8
BUOY 41010       NOT AVBL
ST AUGUSTINE FL  0700   69 70  210/  6/  7 1022.7F


$$



USA.gov is the U.S. government's official web portal to all federal, state and local government web resources and services.